Location: Cambroso
(45.2833°N, 12.0850°E)
Time: 19:54:23
(UTC+00:00)

CSL-04 Rocket - Pass Details

Date: 21 January 2021
Orbit: 806 x 860 km, 98.9° (Epoch: 03 March)

Event Time Altitude Azimuth Distance (km) Brightness Sun altitude
Rises 18:13:30 0° 163° (SSE) 3,347 6.7 -22.6°
Reaches altitude 10° 18:15:49 10° 164° (SSE) 2,426 6.0 -23.0°
Maximum altitude 18:21:13 90° 243° (WSW) 844 3.6 -23.9°
Drops below altitude 10° 18:26:44 10° 346° (NNW) 2,479 6.2 -24.9°
Sets 18:29:07 0° 346° (NNW) 3,426 7.0 -25.3°
